Wind_Speed
11 11 11 11 10 10 10 10 10 10 11 10 11 11 11 11 11 11 12 12 12 12 13 13 13 14 14 15 16 16 17 17 17 18 18 19 19 19
12 11 11 11 12 11 11 11 11 11 11 12 12 12 12 12 12 12 13 13 12 13 13 13 14 15 15 16 17 18 18 19 19 20 20 21 22 22
13 12 12 12 12 12 12 12 12 12 13 13 13 13 13 12 13 13 13 13 13 13 14 15 16 16 17 17 18 19 19 20 21 22 23 23 24 25
14 14 13 13 13 13 13 13 13 13 14 14 14 14 14 14 14 15 15 15 15 15 16 16 17 17 18 19 19 20 21 22 23 24 24 25 26 27
15 15 15 14 14 14 14 15 15 15 15 15 15 15 15 15 16 16 16 17 18 18 18 19 19 19 20 21 22 22 23 24 25 26 26 27 28 28
16 15 16 15 15 15 15 16 16 16 16 16 16 16 17 17 18 18 19 19 20 20 21 21 21 22 22 23 24 25 26 26 27 27 28 29 29 30
16 16 16 17 16 16 16 16 17 17 17 17 17 18 18 19 19 20 21 21 22 23 23 24 24 25 25 26 27 28 28 29 29 30 30 31 32 33
17 17 16 17 17 18 18 18 18 19 19 19 19 20 20 21 22 22 23 23 24 25 26 26 27 27 28 29 29 30 30 31 32 32 33 34 35 36
16 17 17 17 17 18 19 19 20 20 21 21 22 22 23 23 23 24 25 26 26 27 28 29 29 30 31 31 31 32 33 33 34 35 36 37 37 38
17 18 18 19 19 19 20 22 22 22 23 23 23 24 24 25 26 26 27 28 29 29 30 30 32 33 33 34 34 35 36 36 37 37 38 38 39 40
18 19 20 20 21 21 21 22 23 24 23 24 25 25 25 26 28 29 30 30 31 31 32 33 34 34 35 36 37 38 39 39 39 40 40 40 41 41
20 20 21 22 23 23 24 25 25 25 26 26 27 28 28 29 30 31 32 33 33 34 34 35 35 36 37 38 39 40 41 41 42 42 42 43 43 44
23 24 24 25 26 26 26 26 27 27 28 30 30 31 31 31 31 33 34 34 35 36 36 37 38 39 40 40 40 41 42 43 43 44 44 44 45 45
25 25 26 26 26 27 27 28 29 30 30 31 32 32 33 33 34 34 35 37 38 38 39 40 41 41 42 42 42 42 43 43 44 45 45 46 46 46
26 27 27 27 28 28 28 30 30 32 33 34 34 35 36 36 36 37 38 39 40 41 42 42 43 44 44 44 44 44 44 45 46 46 46 47 47 47
28 28 28 29 30 30 31 33 34 34 35 36 36 37 38 38 39 40 41 42 42 43 44 45 45 45 46 46 46 46 46 47 47 47 47 47 47 47
30 31 32 32 33 34 35 35 36 36 36 37 38 40 40 41 42 42 43 44 44 44 45 45 46 46 46 47 47 48 48 49 49 49 49 48 48 48
34 34 35 35 35 36 36 37 37 38 39 40 41 42 43 43 44 44 45 45 45 46 46 47 47 48 48 48 49 49 49 49 49 49 49 49 49 48
36 37 38 38 38 38 39 39 40 40 41 42 42 43 43 44 45 46 46 46 47 48 48 48 48 49 49 49 49 49 49 49 50 50 50 49 48 47
39 40 40 40 40 40 41 41 41 42 42 43 43 44 45 46 46 47 47 47 48 48 48 48 48 49 49 49 49 49 50 50 49 49 48 47 46 46
39 40 40 40 40 41 41 42 42 43 44 44 44 45 46 46 47 47 47 48 47 47 47 48 49 49 50 50 50 49 49 49 48 47 46 46 45 45
38 38 39 39 40 40 41 41 42 43 45 45 46 46 47 47 47 47 47 47 47 48 48 49 49 50 50 50 49 49 48 47 46 46 46 46 46 45
38 39 39 40 40 41 42 43 44 44 45 46 46 47 47 47 47 47 47 47 48 48 49 49 49 50 49 49 49 48 47 46 46 46 46 46 46 46
Wind_Direction
243 247 250 254 257 264 270 274 277 281 283 284 288 292 293 294 295 295 297 293 292 291 289 287 288 289 288 289 290 292 292 292 292 293 294 292 291 290
244 245 249 253 256 261 266 272 276 280 281 283 285 289 292 292 294 296 297 297 294 292 291 291 292 292 291 291 290 290 291 291 291 292 293 294 294 292
244 246 249 253 257 262 265 270 275 279 282 282 283 286 290 292 294 295 295 296 294 293 292 292 293 293 292 291 291 291 291 291 291 291 292 292 293 292
247 248 251 255 259 263 267 272 275 278 281 281 282 282 285 288 293 295 296 295 294 293 292 293 293 293 292 293 293 293 293 292 292 292 292 292 291 291
250 251 253 257 261 264 269 274 276 277 279 279 279 282 284 286 290 293 295 296 295 295 293 293 293 294 295 295 295 295 294 293 292 291 291 291 291 290
253 253 253 259 263 266 270 272 274 276 280 279 280 282 283 286 288 290 292 293 293 293 293 293 294 295 295 295 295 296 295 294 293 292 291 291 291 291
253 254 256 259 262 265 269 273 275 275 277 277 278 280 282 284 286 288 289 290 291 292 292 292 293 294 294 294 294 296 295 294 294 293 292 292 292 291
253 255 260 262 263 265 268 271 274 276 276 276 277 279 282 284 285 287 289 290 290 291 291 292 292 292 293 293 294 295 295 294 294 294 292 291 291 291
256 259 261 264 266 268 270 272 274 276 277 278 278 279 282 283 284 285 287 289 290 290 290 291 291 292 292 293 294 295 295 295 294 294 293 291 291 290
259 263 264 266 268 271 272 273 275 277 278 279 280 281 282 282 283 285 286 287 289 290 290 290 291 292 292 293 294 294 294 294 294 294 293 293 292 292
263 267 269 270 271 271 274 275 276 275 276 278 279 281 283 284 284 285 286 287 289 290 290 291 292 292 293 294 294 294 294 293 293 294 294 294 294 293
266 269 271 272 273 275 276 277 278 278 277 280 281 282 285 286 286 286 287 288 289 291 292 292 292 293 293 293 293 294 293 293 293 294 293 294 293 293
268 271 273 274 276 276 276 276 277 279 280 281 282 283 285 285 286 286 287 289 290 291 291 292 293 293 294 294 293 293 293 293 293 293 293 293 293 292
271 272 275 276 277 277 276 277 277 278 280 281 283 283 285 287 288 288 288 289 290 290 291 292 293 294 294 294 294 293 292 293 293 294 293 293 293 292
271 273 274 276 276 276 278 279 280 281 282 283 284 285 287 288 289 289 289 289 290 290 291 292 293 293 293 294 294 294 293 293 293 294 293 293 294 293
275 274 276 277 277 279 280 281 281 282 282 283 285 286 287 288 288 289 289 290 290 291 292 292 292 292 293 293 294 294 294 294 294 295 295 295 295 294
276 278 278 279 279 279 280 281 282 283 284 284 285 286 287 288 288 289 289 289 290 290 291 291 292 292 293 293 293 294 294 294 294 295 294 294 295 294
276 278 279 279 280 280 281 281 282 283 285 286 286 286 286 287 288 288 289 290 290 291 291 292 292 292 293 294 294 294 294 294 294 294 294 294 294 293
276 279 280 280 279 280 281 281 283 284 284 285 286 287 287 287 287 289 290 291 291 291 291 292 292 292 293 294 294 293 294 295 295 295 295 295 294 292
278 279 279 279 280 280 281 282 283 284 284 285 286 286 287 287 288 289 290 291 291 292 292 292 292 293 293 293 293 294 294 295 295 295 295 294 294 292
279 278 279 279 280 281 282 282 283 284 284 285 286 286 287 287 287 288 289 290 291 292 292 292 293 293 293 293 294 294 295 295 295 295 294 294 295 294
281 280 280 281 281 281 282 283 284 285 285 285 286 287 287 288 288 289 290 290 291 291 291 292 292 293 293 294 294 295 295 295 295 295 294 294 295 295
282 281 282 282 282 282 282 283 285 286 287 287 287 288 288 288 288 289 289 290 291 291 292 292 292 292 293 294 294 293 293 294 294 295 295 295 295 295
Height
5877 5878 5879 5879 5880 5880 5880 5880 5881 5880 5880 5879 5878 5877 5877 5876 5875 5874 5873 5872 5871 5870 5870 5869 5868 5867 5867 5866 5866 5865 5864 5863 5862 5861 5860 5859 5858 5856
5875 5876 5876 5877 5877 5877 5878 5877 5877 5877 5877 5876 5875 5875 5874 5873 5872 5871 5870 5869 5868 5868 5867 5866 5865 5864 5863 5863 5862 5861 5860 5859 5858 5856 5855 5854 5852 5851
5872 5873 5874 5874 5875 5875 5875 5875 5874 5874 5874 5873 5873 5872 5871 5870 5869 5868 5867 5866 5865 5864 5863 5863 5861 5860 5859 5858 5857 5856 5855 5854 5852 5851 5850 5848 5847 5845
5869 5870 5870 5871 5871 5871 5871 5871 5871 5871 5870 5870 5869 5869 5868 5867 5866 5865 5864 5863 5862 5861 5860 5859 5857 5856 5855 5854 5852 5851 5850 5848 5847 5845 5844 5842 5840 5838
5866 5866 5867 5867 5868 5868 5868 5868 5867 5867 5867 5866 5865 5865 5864 5863 5862 5861 5860 5859 5857 5856 5855 5854 5853 5851 5850 5849 5847 5845 5844 5842 5841 5839 5837 5835 5833 5831
5862 5862 5863 5863 5864 5864 5864 5864 5863 5863 5862 5862 5861 5861 5860 5859 5858 5857 5856 5855 5853 5852 5850 5849 5848 5846 5844 5843 5841 5839 5837 5835 5833 5831 5829 5827 5825 5823
5858 5858 5859 5859 5859 5859 5860 5859 5859 5858 5858 5857 5857 5856 5856 5854 5853 5852 5851 5849 5848 5846 5845 5843 5841 5840 5838 5836 5834 5832 5829 5827 5825 5823 5821 5819 5817 5814
5853 5854 5854 5854 5854 5855 5855 5855 5854 5854 5853 5852 5852 5851 5850 5849 5848 5846 5845 5844 5842 5841 5839 5837 5835 5833 5830 5828 5826 5824 5821 5819 5817 5814 5812 5809 5807 5804
5849 5849 5849 5850 5850 5850 5850 5849 5849 5848 5848 5847 5846 5845 5844 5843 5842 5840 5839 5837 5835 5833 5832 5829 5827 5825 5822 5820 5818 5815 5813 5810 5807 5804 5802 5799 5796 5794
5844 5845 5845 5845 5845 5845 5844 5844 5843 5843 5842 5841 5840 5839 5838 5837 5835 5834 5832 5830 5828 5826 5824 5822 5819 5816 5813 5811 5808 5805 5803 5800 5797 5794 5791 5788 5785 5782
5839 5839 5839 5839 5839 5839 5838 5838 5837 5836 5835 5834 5833 5832 5831 5829 5828 5826 5824 5822 5820 5818 5815 5813 5810 5807 5804 5801 5798 5795 5792 5789 5786 5783 5779 5776 5773 5770
5834 5834 5834 5833 5833 5832 5832 5831 5830 5829 5828 5827 5826 5825 5823 5822 5820 5818 5816 5814 5811 5809 5806 5804 5800 5797 5795 5792 5788 5784 5780 5777 5774 5771 5768 5764 5761 5757
5828 5827 5827 5827 5826 5825 5825 5824 5823 5822 5821 5819 5818 5816 5815 5813 5811 5809 5807 5804 5802 5799 5796 5793 5790 5787 5784 5781 5777 5773 5769 5766 5762 5759 5755 5752 5748 5744
5821 5821 5820 5820 5818 5818 5817 5816 5815 5814 5813 5811 5809 5808 5806 5804 5802 5800 5797 5795 5792 5789 5786 5782 5779 5776 5772 5769 5766 5762 5758 5754 5750 5747 5743 5739 5735 5731
5814 5814 5813 5812 5811 5810 5809 5808 5807 5805 5804 5802 5800 5799 5797 5794 5792 5789 5787 5784 5781 5777 5774 5771 5767 5763 5760 5756 5753 5749 5746 5742 5738 5734 5730 5726 5721 5717
5806 5806 5805 5804 5803 5802 5800 5799 5797 5796 5794 5792 5790 5788 5786 5783 5781 5778 5775 5772 5769 5766 5762 5758 5754 5751 5747 5743 5739 5736 5732 5728 5724 5720 5716 5712 5707 5703
5798 5797 5796 5795 5794 5793 5791 5789 5788 5786 5784 5782 5779 5777 5774 5772 5769 5766 5763 5759 5756 5753 5749 5745 5741 5737 5733 5730 5726 5722 5718 5714 5709 5705 5701 5697 5693 5688
5789 5788 5787 5785 5784 5782 5781 5779 5777 5775 5773 5770 5768 5765 5762 5759 5756 5753 5750 5746 5743 5739 5735 5731 5727 5724 5720 5716 5712 5707 5703 5699 5694 5690 5685 5681 5678 5673
5779 5778 5776 5775 5773 5771 5769 5767 5765 5763 5761 5758 5755 5752 5749 5746 5743 5740 5736 5733 5729 5726 5721 5717 5713 5709 5706 5702 5698 5692 5688 5684 5679 5675 5670 5666 5662 5658
5769 5767 5765 5764 5762 5760 5758 5755 5753 5751 5748 5745 5743 5740 5736 5733 5730 5726 5723 5719 5716 5711 5707 5703 5699 5695 5691 5687 5683 5679 5673 5669 5665 5660 5656 5651 5647 5643
5757 5755 5753 5752 5750 5748 5746 5743 5741 5738 5735 5732 5729 5726 5723 5719 5716 5713 5709 5705 5701 5697 5693 5689 5685 5681 5676 5672 5668 5664 5660 5655 5650 5646 5642 5638 5634 5630
5745 5743 5742 5740 5738 5735 5733 5730 5727 5725 5722 5719 5716 5713 5709 5706 5702 5699 5695 5691 5687 5683 5679 5675 5671 5666 5662 5658 5653 5649 5645 5641 5636 5632 5628 5624 5620 5616
5733 5731 5729 5727 5725 5723 5720 5717 5714 5711 5708 5705 5702 5698 5695 5691 5688 5684 5680 5677 5673 5669 5665 5661 5656 5652 5648 5643 5639 5635 5631 5627 5623 5619 5616 5611 5607 5603